Change the Weather History Date:

Sunday, June 23, 2013

  Actual Average (KCIU) Record (KCIU)
Temperature  
Mean Temperature 65 °F -  
Max Temperature 73 °F 71 °F 89 °F (2003)
Min Temperature 57 °F 46 °F 36 °F (1978)
Growing Degree Days 15 (Base 50)    
Moisture  
Dew Point 62 °F    
Average Humidity 93    
Maximum Humidity 100    
Minimum Humidity 76    
Precipitation  
Precipitation 0.00 in - - ()
Sea Level Pressure  
Sea Level Pressure 29.96 in    
Wind  
Wind Speed 3 mph (SE)    
Max Wind Speed 9 mph    
Max Gust Speed -    
Visibility 7 miles    
Events Fog    
Averages and records for this station are not official NWS values.
T = Trace of Precipitation, MM = Missing Value Source: NWS Daily Summary

Daily Weather History Graph

Daily Weather History Graph

Search for Another Location

Airport or City:

Trip Planner

Search our weather history database for the weather conditions in past years. The results will help you decide how hot, cold, wet, or windy it might be!

Date:

Astronomy

Jun. 23, 2013 Rise Set
Actual Time 5:44 AM EDT 9:29 PM EDT
Civil Twilight 5:06 AM EDT 10:08 PM EDT
Nautical Twilight 4:14 AM EDT 11:00 PM EDT
Astronomical Twilight 3:01 AM EDT 12:13 AM EDT
Moon 9:35 PM EDT (6/23) 6:04 AM EDT (6/23)
Length of Visible Light 17h 02m
Length of Day
15h 45m
Full, 100% of the Moon is Illuminated
Jun 23
Full
Jun 30
Last Quarter
Jul 8
New
Jul 15
First Quarter
Jul 22
Full

Hourly Weather History & Observations

Time (EDT) Temp. Dew Point Humidity Pressure Visibility Wind Dir Wind Speed Gust Speed Precip Events Conditions
12:16 AM 60.1 °F 60.1 °F 100% 30.04 in 3.0 mi Calm Calm - N/A   Clear
12:36 AM 59.5 °F 59.5 °F 100% 30.04 in 2.0 mi Calm Calm - N/A   Mist
12:56 AM 59.9 °F 59.9 °F 100% 30.04 in 2.5 mi Calm Calm - N/A   Mist
1:16 AM 59.4 °F 59.4 °F 100% 30.03 in 1.2 mi Calm Calm - N/A   Mist
1:36 AM 59.9 °F 59.9 °F 100% 30.01 in 2.5 mi ESE 3.5 mph - N/A   Mist
1:56 AM 60.1 °F 60.1 °F 100% 30.00 in 2.5 mi ESE 4.6 mph - N/A   Mist
2:16 AM 60.4 °F 60.4 °F 100% 30.00 in 2.5 mi SE 3.5 mph - N/A   Mist
2:36 AM 60.4 °F 60.4 °F 100% 30.01 in 2.0 mi SSE 3.5 mph - N/A   Mist
2:56 AM 60.6 °F 60.6 °F 100% 30.01 in 2.0 mi SE 3.5 mph - N/A   Overcast
3:16 AM 61.0 °F 61.0 °F 100% 30.00 in 2.0 mi SE 3.5 mph - N/A   Overcast
3:36 AM 60.4 °F 60.4 °F 100% 30.02 in 0.8 mi SSE 9.2 mph - N/A   Overcast
3:56 AM 57.6 °F 57.6 °F 100% 30.01 in 0.2 mi SE 4.6 mph - N/A Fog Fog
4:16 AM 57.6 °F 57.6 °F 100% 30.01 in 0.5 mi SE 4.6 mph - N/A Fog Fog
4:36 AM 57.6 °F 57.6 °F 100% 30.01 in 0.5 mi SSE 3.5 mph - N/A Fog Fog
4:56 AM 57.6 °F 57.6 °F 100% 30.01 in 0.5 mi Calm Calm - N/A Fog Fog
5:16 AM 58.1 °F 58.1 °F 100% 30.01 in 0.5 mi Calm Calm - N/A Fog Fog
5:36 AM 58.3 °F 58.3 °F 100% 30.00 in 0.2 mi SE 3.5 mph - N/A Fog Fog
5:56 AM 58.5 °F 58.5 °F 100% 29.98 in 0.2 mi ESE 4.6 mph - N/A Fog Fog
6:16 AM 59.0 °F 59.0 °F 100% 29.97 in 0.8 mi ESE 4.6 mph - N/A   Overcast
6:36 AM 59.4 °F 59.4 °F 100% 29.98 in 2.0 mi ESE 5.8 mph - N/A   Overcast
6:56 AM 59.9 °F 59.9 °F 100% 29.98 in 2.5 mi ESE 9.2 mph - N/A   Overcast
7:16 AM 60.3 °F 60.3 °F 100% 29.98 in 3.0 mi SE 5.8 mph - N/A   Overcast
7:36 AM 60.8 °F 60.8 °F 100% 29.98 in 4.0 mi SE 4.6 mph - N/A   Overcast
7:56 AM 60.4 °F 60.4 °F 100% 29.97 in 5.0 mi SE 6.9 mph - N/A   Overcast
8:16 AM 60.4 °F 60.4 °F 100% 29.97 in 7.0 mi SE 5.8 mph - N/A   Overcast
8:36 AM 61.3 °F 61.3 °F 100% 29.97 in 10.0 mi ESE 5.8 mph - N/A   Overcast
8:56 AM 61.3 °F 61.3 °F 100% 29.97 in 10.0 mi SE 5.8 mph - N/A   Overcast
9:16 AM 61.2 °F 61.0 °F 99% 29.98 in 10.0 mi SE 5.8 mph - N/A   Overcast
9:36 AM 61.3 °F 61.0 °F 99% 29.98 in 10.0 mi Calm Calm - N/A   Overcast
9:56 AM 61.5 °F 60.8 °F 97% 29.99 in 10.0 mi SSE 4.6 mph - N/A   Overcast
10:16 AM 62.1 °F 61.2 °F 97% 29.98 in 10.0 mi SE 4.6 mph - N/A   Overcast
10:36 AM 63.1 °F 61.5 °F 94% 29.97 in 10.0 mi ESE 6.9 mph - N/A   Overcast
10:56 AM 64.0 °F 61.7 °F 92% 29.98 in 10.0 mi SSE 5.8 mph - N/A   Overcast
11:16 AM 61.9 °F 60.1 °F 94% 29.99 in 10.0 mi SSE 9.2 mph - N/A   Overcast
11:36 AM 60.3 °F 59.2 °F 96% 29.98 in 10.0 mi SSE 9.2 mph - N/A   Overcast
11:56 AM 62.1 °F 60.1 °F 93% 29.96 in 10.0 mi SE 6.9 mph - N/A   Overcast
12:16 PM 63.0 °F 60.3 °F 91% 29.98 in 10.0 mi South 5.8 mph - N/A   Overcast
12:36 PM 62.4 °F 59.7 °F 91% 29.98 in 10.0 mi South 5.8 mph - N/A   Overcast
12:56 PM 62.6 °F 59.9 °F 91% 29.98 in 10.0 mi South 6.9 mph - N/A   Overcast
1:16 PM 63.5 °F 60.4 °F 90% 29.97 in 10.0 mi SSE 3.5 mph - N/A   Overcast
1:36 PM 64.4 °F 60.8 °F 88% 29.97 in 10.0 mi SE 4.6 mph - N/A   Overcast
1:56 PM 64.6 °F 61.2 °F 89% 29.97 in 10.0 mi Calm Calm - N/A   Overcast
2:16 PM 67.1 °F 62.2 °F 84% 29.97 in 10.0 mi Calm Calm - N/A   Overcast
2:36 PM 69.8 °F 64.0 °F 82% 29.97 in 10.0 mi West 4.6 mph - N/A   Mostly Cloudy
2:56 PM 69.1 °F 63.9 °F 83% 29.95 in 10.0 mi Calm Calm - N/A   Scattered Clouds
3:16 PM 69.8 °F 64.0 °F 82% 29.95 in 10.0 mi NW 3.5 mph - N/A   Clear
3:36 PM 70.5 °F 64.4 °F 81% 29.95 in 10.0 mi Calm Calm - N/A   Clear
3:56 PM 71.1 °F 65.1 °F 81% 29.95 in 10.0 mi WSW 4.6 mph - N/A   Clear
4:16 PM 69.8 °F 64.6 °F 83% 29.94 in 10.0 mi Calm Calm - N/A   Clear
4:36 PM 67.5 °F 63.0 °F 85% 29.93 in 10.0 mi SSE 4.6 mph - N/A   Clear
4:55 PM 67.5 °F 62.4 °F 84% 29.92 in 10.0 mi South 4.6 mph - N/A   Clear
5:16 PM 66.7 °F 61.9 °F 84% 29.93 in 10.0 mi Calm Calm - N/A   Clear
5:36 PM 67.8 °F 62.4 °F 83% 29.92 in 10.0 mi ESE 3.5 mph - N/A   Clear
5:56 PM 70.5 °F 63.9 °F 79% 29.90 in 10.0 mi Calm Calm - N/A   Clear
6:16 PM 71.6 °F 64.6 °F 78% 29.90 in 10.0 mi Calm Calm - N/A   Clear
6:36 PM 72.7 °F 64.9 °F 77% 29.89 in 10.0 mi ESE 3.5 mph - N/A   Clear
6:56 PM 73.6 °F 65.5 °F 76% 29.88 in 10.0 mi ESE 4.6 mph - N/A   Clear
7:15 PM 73.9 °F 65.8 °F 76% 29.88 in 10.0 mi SSE 5.8 mph - N/A   Clear
7:36 PM 72.9 °F 65.5 °F 78% 29.87 in 10.0 mi South 3.5 mph - N/A   Clear
7:56 PM 70.0 °F 63.9 °F 81% 29.89 in 10.0 mi SSE 8.1 mph - N/A   Clear
8:16 PM 66.2 °F 63.5 °F 91% 29.90 in 7.0 mi SSE 8.1 mph - N/A   Clear
8:36 PM 65.3 °F 63.5 °F 94% 29.90 in 7.0 mi SE 5.8 mph - N/A   Clear
8:56 PM 65.1 °F 63.7 °F 95% 29.90 in 7.0 mi SSE 4.6 mph - N/A   Clear
9:16 PM 64.9 °F 63.7 °F 96% 29.90 in 5.0 mi Calm Calm - N/A   Clear
9:36 PM 64.9 °F 63.9 °F 96% 29.91 in 5.0 mi Calm Calm - N/A   Clear
9:56 PM 64.6 °F 63.9 °F 98% 29.91 in 5.0 mi Calm Calm - N/A   Clear
10:16 PM 64.6 °F 64.2 °F 99% 29.91 in 7.0 mi Calm Calm - N/A   Clear
10:36 PM 64.4 °F 64.0 °F 99% 29.91 in 5.0 mi Calm Calm - N/A   Clear
10:56 PM 64.9 °F 64.6 °F 99% 29.91 in 7.0 mi SE 3.5 mph - N/A   Clear
11:16 PM 65.5 °F 64.4 °F 96% 29.90 in 7.0 mi SSE 4.6 mph - N/A   Clear
11:36 PM 65.3 °F 64.0 °F 96% 29.91 in 7.0 mi South 3.5 mph - N/A   Clear
11:56 PM 64.6 °F 63.5 °F 96% 29.91 in 7.0 mi Calm Calm - N/A   Clear